| Date Time MST |
Temp °F |
RH % |
DewPt °F |
Wind mph |
Dir ° |
Gust mph |
Dir ° |
Press in Hg |
Solar W/m^2 |
Prec in |
|---|---|---|---|---|---|---|---|---|---|---|
| 2026-05-02 20:25 | 58.9 | 17.0 | 14.2 | 0.4 | 82 | 1.4 | 82 | 24.857 | 0.0 | 0.00 |
| 2026-05-02 20:20 | 60.1 | 13.7 | 10.3 | 1.4 | 158 | 2.6 | 216 | 24.856 | 0.0 | 0.00 |
| 2026-05-02 20:15 | 60.4 | 13.4 | 10.0 | 3.0 | 223 | 4.6 | 198 | 24.855 | 0.0 | 0.00 |
| 2026-05-02 20:10 | 60.3 | 13.6 | 10.1 | 4.8 | 166 | 6.7 | 182 | 24.853 | 0.1 | 0.00 |
| 2026-05-02 20:05 | 59.6 | 13.7 | 9.7 | 4.7 | 182 | 6.4 | 178 | 24.852 | 0.1 | 0.00 |
| 2026-05-02 20:00 | 59.2 | 13.7 | 9.5 | 4.4 | 173 | 5.7 | 172 | 24.851 | 0.1 | 0.00 |
| 2026-05-02 19:55 | 59.3 | 14.2 | 10.3 | 4.6 | 174 | 5.7 | 163 | 24.850 | 0.2 | 0.00 |
| 2026-05-02 19:50 | 59.5 | 14.1 | 10.4 | 5.1 | 174 | 6.1 | 162 | 24.851 | 0.2 | 0.00 |
| 2026-05-02 19:45 | 60.4 | 14.7 | 12.0 | 4.2 | 160 | 4.8 | 149 | 24.852 | 0.2 | 0.00 |
| 2026-05-02 19:40 | 60.7 | 13.7 | 10.8 | 3.2 | 161 | 4.1 | 145 | 24.851 | 0.2 | 0.00 |
| 2026-05-02 19:35 | 60.9 | 13.6 | 10.6 | 3.4 | 146 | 4.3 | 155 | 24.850 | 0.2 | 0.00 |
| 2026-05-02 19:30 | 61.1 | 14.2 | 11.9 | 3.5 | 159 | 4.5 | 174 | 24.848 | 0.2 | 0.00 |
| 2026-05-02 19:25 | 61.2 | 14.3 | 12.1 | 3.5 | 186 | 4.5 | 178 | 24.846 | 0.2 | 0.00 |
| 2026-05-02 19:20 | 61.5 | 14.4 | 12.5 | 3.7 | 165 | 5.0 | 183 | 24.845 | 0.3 | 0.00 |
| 2026-05-02 19:15 | 61.9 | 14.2 | 12.6 | 4.5 | 177 | 6.4 | 176 | 24.845 | 0.5 | 0.00 |
| 2026-05-02 19:10 | 62.3 | 14.4 | 13.1 | 5.2 | 180 | 6.9 | 183 | 24.844 | 1.0 | 0.00 |
| 2026-05-02 19:05 | 62.8 | 14.0 | 12.8 | 5.3 | 192 | 7.1 | 187 | 24.843 | 1.7 | 0.00 |
| 2026-05-02 19:00 | 63.2 | 13.5 | 12.3 | 4.3 | 197 | 6.7 | 184 | 24.845 | 2.8 | 0.00 |
| 2026-05-02 18:55 | 63.6 | 13.9 | 13.4 | 3.8 | 199 | 5.8 | 209 | 24.845 | 4.1 | 0.00 |
| 2026-05-02 18:50 | 64.0 | 13.5 | 12.9 | 4.3 | 211 | 6.2 | 196 | 24.843 | 5.7 | 0.00 |
| 2026-05-02 18:45 | 64.8 | 13.3 | 13.3 | 3.6 | 191 | 5.8 | 196 | 24.842 | 8.2 | 0.00 |
| 2026-05-02 18:40 | 65.9 | 11.8 | 11.5 | 4.1 | 186 | 5.7 | 163 | 24.841 | 11.3 | 0.00 |
| 2026-05-02 18:35 | 66.6 | 10.8 | 10.1 | 6.0 | 161 | 7.4 | 143 | 24.841 | 17.2 | 0.00 |
| 2026-05-02 18:30 | 67.0 | 10.6 | 9.9 | 5.9 | 154 | 8.3 | 152 | 24.841 | 31.5 | 0.00 |
| 2026-05-02 18:25 | 67.4 | 10.6 | 10.2 | 4.7 | 156 | 6.5 | 149 | 24.843 | 20.1 | 0.00 |
| 2026-05-02 18:20 | 68.1 | 10.5 | 10.6 | 4.8 | 160 | 7.1 | 165 | 24.847 | 55.0 | 0.00 |
| 2026-05-02 18:15 | 68.4 | 10.3 | 10.4 | 5.1 | 193 | 7.2 | 167 | 24.847 | 73.7 | 0.00 |
| 2026-05-02 18:10 | 68.5 | 10.2 | 10.1 | 5.2 | 177 | 7.7 | 167 | 24.847 | 62.1 | 0.00 |
| 2026-05-02 18:05 | 68.8 | 10.1 | 10.3 | 6.4 | 160 | 8.7 | 158 | 24.846 | 48.0 | 0.00 |
| 2026-05-02 18:00 | 69.3 | 10.1 | 10.6 | 7.3 | 157 | 9.6 | 158 | 24.847 | 130.7 | 0.00 |
| Date Time MST |
Temp °C |
RH % |
DewPt °C |
Wind m/s |
Dir ° |
Gust m/s |
Dir ° |
Press hPa |
Solar W/m^2 |
Prec mm |
|---|---|---|---|---|---|---|---|---|---|---|
| 2026-05-02 20:25 | 14.9 | 17.0 | -9.9 | 0.2 | 82 | 0.6 | 82 | 841.76 | 0.0 | 0.00 |
| 2026-05-02 20:20 | 15.6 | 13.7 | -12.1 | 0.6 | 158 | 1.2 | 216 | 841.71 | 0.0 | 0.00 |
| 2026-05-02 20:15 | 15.8 | 13.4 | -12.2 | 1.4 | 223 | 2.1 | 198 | 841.68 | 0.0 | 0.00 |
| 2026-05-02 20:10 | 15.7 | 13.6 | -12.2 | 2.1 | 166 | 3.0 | 182 | 841.61 | 0.1 | 0.00 |
| 2026-05-02 20:05 | 15.3 | 13.7 | -12.4 | 2.1 | 182 | 2.9 | 178 | 841.60 | 0.1 | 0.00 |
| 2026-05-02 20:00 | 15.1 | 13.7 | -12.5 | 2.0 | 173 | 2.5 | 172 | 841.54 | 0.1 | 0.00 |
| 2026-05-02 19:55 | 15.2 | 14.2 | -12.0 | 2.1 | 174 | 2.5 | 163 | 841.50 | 0.2 | 0.00 |
| 2026-05-02 19:50 | 15.3 | 14.1 | -12.0 | 2.3 | 174 | 2.7 | 162 | 841.54 | 0.2 | 0.00 |
| 2026-05-02 19:45 | 15.8 | 14.7 | -11.1 | 1.9 | 160 | 2.2 | 149 | 841.57 | 0.2 | 0.00 |
| 2026-05-02 19:40 | 15.9 | 13.7 | -11.8 | 1.4 | 161 | 1.8 | 145 | 841.57 | 0.2 | 0.00 |
| 2026-05-02 19:35 | 16.1 | 13.6 | -11.9 | 1.5 | 146 | 1.9 | 155 | 841.51 | 0.2 | 0.00 |
| 2026-05-02 19:30 | 16.2 | 14.2 | -11.2 | 1.5 | 159 | 2.0 | 174 | 841.46 | 0.2 | 0.00 |
| 2026-05-02 19:25 | 16.2 | 14.3 | -11.1 | 1.6 | 186 | 2.0 | 178 | 841.40 | 0.2 | 0.00 |
| 2026-05-02 19:20 | 16.4 | 14.4 | -10.8 | 1.6 | 165 | 2.2 | 183 | 841.36 | 0.3 | 0.00 |
| 2026-05-02 19:15 | 16.6 | 14.2 | -10.8 | 2.0 | 177 | 2.8 | 176 | 841.33 | 0.5 | 0.00 |
| 2026-05-02 19:10 | 16.8 | 14.4 | -10.5 | 2.3 | 180 | 3.1 | 183 | 841.30 | 1.0 | 0.00 |
| 2026-05-02 19:05 | 17.1 | 14.0 | -10.6 | 2.4 | 192 | 3.2 | 187 | 841.28 | 1.7 | 0.00 |
| 2026-05-02 19:00 | 17.3 | 13.5 | -10.9 | 1.9 | 197 | 3.0 | 184 | 841.34 | 2.8 | 0.00 |
| 2026-05-02 18:55 | 17.5 | 13.9 | -10.3 | 1.7 | 199 | 2.6 | 209 | 841.36 | 4.1 | 0.00 |
| 2026-05-02 18:50 | 17.8 | 13.5 | -10.6 | 1.9 | 211 | 2.8 | 196 | 841.28 | 5.7 | 0.00 |
| 2026-05-02 18:45 | 18.2 | 13.3 | -10.4 | 1.6 | 191 | 2.6 | 196 | 841.25 | 8.2 | 0.00 |
| 2026-05-02 18:40 | 18.8 | 11.8 | -11.4 | 1.8 | 186 | 2.5 | 163 | 841.21 | 11.3 | 0.00 |
| 2026-05-02 18:35 | 19.2 | 10.8 | -12.1 | 2.7 | 161 | 3.3 | 143 | 841.21 | 17.2 | 0.00 |
| 2026-05-02 18:30 | 19.4 | 10.6 | -12.3 | 2.6 | 154 | 3.7 | 152 | 841.20 | 31.5 | 0.00 |
| 2026-05-02 18:25 | 19.7 | 10.6 | -12.1 | 2.1 | 156 | 2.9 | 149 | 841.28 | 20.1 | 0.00 |
| 2026-05-02 18:20 | 20.1 | 10.5 | -11.9 | 2.2 | 160 | 3.2 | 165 | 841.42 | 55.0 | 0.00 |
| 2026-05-02 18:15 | 20.2 | 10.3 | -12.0 | 2.3 | 193 | 3.2 | 167 | 841.41 | 73.7 | 0.00 |
| 2026-05-02 18:10 | 20.3 | 10.2 | -12.2 | 2.3 | 177 | 3.5 | 167 | 841.41 | 62.1 | 0.00 |
| 2026-05-02 18:05 | 20.5 | 10.1 | -12.1 | 2.8 | 160 | 3.9 | 158 | 841.39 | 48.0 | 0.00 |
| 2026-05-02 18:00 | 20.8 | 10.1 | -11.9 | 3.3 | 157 | 4.3 | 158 | 841.41 | 130.7 | 0.00 |